Location: Barrialito
(10.1025°N, 66.8154°W)
Time: 00:18:39
(UTC+00:00)

USA 215 - Pass Details

Date: 12 December 2024
Orbit: 1099 x 1108 km, 123.0° (Epoch: 15 January)

Event Time Altitude Azimuth Distance (km) Brightness Sun altitude
Rises 22:21:39 0° 96° (E) 3,914 5.6 -4.0°
Reaches altitude 10° 22:25:49 10° 70° (ENE) 2,954 4.8 -5.0°
Maximum altitude 22:28:30 13° 46° (NE) 2,741 4.8 -5.6°
Drops below altitude 10° 22:31:10 10° 21° (NNE) 2,951 5.1 -6.2°
Sets 22:35:18 0° 355° (N) 3,906 6.0 -7.1°
